Greenville, MS

3:19 PM CDT on October 16, 2019 (GMT -0500)
Mid Delta Regional

Weather History for KGLH - September, 2019

Change the Weather History Date:

Sunday, September 22, 2019

  Actual Average Record
Temperature  
Mean Temperature 81 °F 73 °F  
Max Temperature 93 °F 85 °F 98 °F (1931)
Min Temperature 68 °F 61 °F 42 °F (1983)
Degree Days  
Heating Degree Days 0 0  
Month to date heating degree days 0 0  
Since 1 July heating degree days 0 0  
Cooling Degree Days 16 8  
Month to date cooling degree days 400 249  
Year to date cooling degree days 2264 2028  
Growing Degree Days 31 (Base 50)    
Moisture  
Dew Point 65 °F    
Average Humidity 63    
Maximum Humidity 90    
Minimum Humidity 38    
Precipitation  
Precipitation 0.00 in 0.09 in 3.30 in (1934)
Month to date precipitation 0.65 2.23  
Year to date precipitation 61.33 36.79  
Sea Level Pressure  
Sea Level Pressure 30.08 in    
Wind  
Wind Speed 6 mph ()    
Max Wind Speed 17 mph    
Max Gust Speed 26 mph    
Visibility 10.0 miles    
Events      
T = Trace of Precipitation, MM = Missing Value Source: Averaged Metar Reports

Daily Weather History Graph

Daily Weather History Graph

Search for Another Location

Airport or City:

Astronomy

Sep. 22, 2019 Rise Set
Actual Time 6:51 AM CDT 7:00 PM CDT
Civil Twilight 6:27 AM CDT 7:25 PM CDT
Nautical Twilight 5:58 AM CDT 7:54 PM CDT
Astronomical Twilight 5:28 AM CDT 8:23 PM CDT
Moon No Moon Rise 2:38 PM CDT (9/22)
Length of Visible Light 12h 58m
Length of Day
12h 09m
Last Quarter, 44% of the Moon is Illuminated
Sep 22
Last Quarter
Sep 28
New
Oct 5
First Quarter
Oct 13
Full
Oct 21
Last Quarter

Hourly Weather History & Observations

Time (CDT) Temp. Heat Index Dew Point Humidity Pressure Visibility Wind Dir Wind Speed Gust Speed Precip Events Conditions
12:53 AM 73.9 °F - 62.1 °F 66% 30.11 in 10.0 mi South 6.9 mph - N/A   Partly Cloudy
1:53 AM 71.1 °F - 64.0 °F 78% 30.11 in 10.0 mi South 5.8 mph - N/A   Clear
2:53 AM 70.0 °F - 64.9 °F 84% 30.11 in 10.0 mi South 4.6 mph - N/A   Partly Cloudy
3:53 AM 70.0 °F - 66.0 °F 87% 30.11 in 10.0 mi Calm Calm - N/A   Clear
4:53 AM 70.0 °F - 66.0 °F 87% 30.11 in 10.0 mi SSE 5.8 mph - N/A   Clear
5:53 AM 69.1 °F - 66.0 °F 90% 30.12 in 10.0 mi SSE 4.6 mph - N/A   Clear
6:53 AM 71.1 °F - 68.0 °F 90% 30.12 in 10.0 mi SSE 4.6 mph - N/A   Mostly Cloudy
7:53 AM 73.0 °F - 69.1 °F 87% 30.14 in 10.0 mi Calm Calm - N/A   Overcast
8:53 AM 77.0 °F - 70.0 °F 79% 30.14 in 10.0 mi South 8.1 mph - N/A   Overcast
9:53 AM 81.0 °F 84.1 °F 69.1 °F 67% 30.15 in 10.0 mi SSW 11.5 mph - N/A   Overcast
10:53 AM 84.9 °F 87.6 °F 66.9 °F 55% 30.14 in 10.0 mi SSW 15.0 mph - N/A   Overcast
11:53 AM 87.1 °F 88.9 °F 64.9 °F 48% 30.12 in 10.0 mi SW 15.0 mph - N/A   Mostly Cloudy
12:53 PM 89.1 °F 90.3 °F 64.0 °F 43% 30.09 in 10.0 mi South 10.4 mph 20.7 mph N/A   Clear
1:53 PM 91.0 °F 92.6 °F 64.0 °F 41% 30.07 in 10.0 mi Variable 6.9 mph - N/A   Scattered Clouds
2:53 PM 91.9 °F 93.3 °F 64.0 °F 39% 30.04 in 10.0 mi South 12.7 mph - N/A   Partly Cloudy
3:53 PM 91.9 °F 92.9 °F 63.0 °F 38% 30.03 in 10.0 mi SSW 13.8 mph 19.6 mph N/A   Partly Cloudy
4:53 PM 91.9 °F 92.9 °F 63.0 °F 38% 30.02 in 10.0 mi Variable 6.9 mph - N/A   Clear
5:53 PM 89.1 °F 90.3 °F 64.0 °F 43% 30.02 in 10.0 mi SSW 9.2 mph - N/A   Overcast
6:53 PM 86.0 °F 87.6 °F 64.9 °F 49% 30.02 in 10.0 mi South 6.9 mph - N/A   Overcast
7:53 PM 82.9 °F 85.0 °F 66.0 °F 56% 30.03 in 10.0 mi South 5.8 mph - N/A   Overcast
8:53 PM 82.0 °F 84.1 °F 66.0 °F 58% 30.05 in 10.0 mi SSE 6.9 mph - N/A   Overcast
9:53 PM 82.0 °F 83.8 °F 64.9 °F 56% 30.06 in 10.0 mi SSE 6.9 mph - N/A   Clear
10:53 PM 78.1 °F - 66.0 °F 66% 30.05 in 10.0 mi SSE 8.1 mph - N/A   Clear
11:53 PM 78.1 °F - 64.9 °F 64% 30.05 in 10.0 mi South 6.9 mph - N/A   Clear